Regional Weather Roundup
Issued by NWS

Home | Current Version | Previous Version | Text Only | Print | Product List | Glossary On
Versions: 1 2 3 4 5 6 7 8 9 10 11 12 13 14 15 16 17 18 19 20 21 22 23 24 25 26 27 28 29 30 31 32 33 34 35 36 37 38 39 40 41 42 43 44 45 46 47 48 49 50
000
ASUS45 KSLC 290510
RWRUT

UTAH REGIONAL WEATHER ROUNDUP
NATIONAL WEATHER SERVICE SALT LAKE CITY UT
1100 PM MDT MON JUL 28 2014

UTZ001>011-023>025-290600-

NORTHERN UTAH

CITY           SKY/WX    TMP DP  RH WIND       PRES   REMARKS
HILL AFB       LGT RAIN  68  58  71 E3        30.28R
LOGAN          PTCLDY    67  58  72 N7        30.27R
OGDEN          CLOUDY    71  56  58 S8        30.26R
PROVO AIRPORT  CLOUDY    70  63  78 NE5       30.25S
SALT LAKE CITY CLOUDY    70  61  73 N12       30.24R
VERNAL         CLOUDY    68  57  68 W5        30.30F
WENDOVER       CLOUDY    77  55  47 NE7       30.21S
HEBER CITY     CLOUDY    63  57  82 CALM      30.32S
WEST JORDAN    CLOUDY    72  66  83 CALM      30.27R

$$

UTZ012>022-026-027-290600-

SOUTHERN UTAH

CITY           SKY/WX    TMP DP  RH WIND       PRES   REMARKS
BRYCE CANYON   MOCLDY    58  54  86 NW5       30.45S
CEDAR CITY     CLOUDY    66  58  75 CALM      30.29R
MILFORD        MOCLDY    75  52  44 SW9       30.22S
MOAB/CYNLANDS  HVY RAIN  64  61  90 W13       30.29R FOG
PRICE          CLOUDY    67  56  67 NW3       30.31R
ST GEORGE      CLOUDY    82  55  39 SE5       30.11S
KANAB            N/A     64  59  82 N3        30.30S

$$

REGIONAL REPORTS     COLORADO/ARIZONA

CITY           SKY/WX    TMP DP  RH WIND       PRES   REMARKS
CRAIG, CO      CLOUDY    58  52  80 CALM      30.34S
GRAND JUNCTION CLOUDY    70  57  63 SW6       30.25R
RIFLE          CLOUDY    64  59  83 W6        30.32S
MONTROSE       RAIN      64  57  78 SE16      30.40R
CORTEZ         CLOUDY    63  60  90 CALM      30.36R
PAGE, AZ       CLOUDY    81  52  36 S3        30.21R
GRAND CANYON   PTCLDY    57  53  86 NE5       30.40R
KINGMAN        PTCLDY    72  63  73 E6        30.16S
FLAGSTAFF      PTCLDY    59  53  80 CALM      30.43R

$$

REGIONAL REPORTS    NEVADA/IDAHO/WYOMING

CITY           SKY/WX    TMP DP  RH WIND       PRES   REMARKS
LAS VEGAS, NV  MOCLDY    84  62  47 S9        30.02R
ELY            CLOUDY    64  53  67 W6        30.35S
ELKO           CLOUDY    68  53  58 SW9       30.25F
POCATELLO, ID  RAIN      65  60  84 SW8       30.29R
BURLEY         CLOUDY    75  55  49 E10       30.20R
EVANSTON, WY   LGT RAIN  57  54  89 W10       30.41R
ROCK SPRINGS   CLOUDY    69  44  40 SW9       30.34R

$$


USA.gov is the U.S. government's official web portal to all federal, state and local government web resources and services.